This is the latest recevied weather packets stored in our database for station/object W1CAT. If no packets are shown the sender has not sent any weather packets the latest 10 day(s).
| Time | Temp. | Humidity | Pressure | Rain* | Wind** | Luminosity | Snow |
|---|---|---|---|---|---|---|---|
| 1777862829 | 8.89° C | 41% | - | 0 mm | - | - | - |
| 1777862525 | 9.44° C | 43% | - | 0 mm | - | - | - |
| 1777862222 | 9.44° C | 41% | - | 0 mm | - | - | - |
| 1777861918 | 8.89° C | 42% | - | 0 mm | - | - | - |
| 1777861615 | 9.44° C | 40% | - | 0 mm | - | - | - |
| 1777861310 | 9.44° C | 36% | - | 0 mm | - | - | - |
| 1777861008 | 10° C | 36% | - | 0 mm | - | - | - |
| 1777860704 | 11.11° C | 35% | - | 0 mm | - | - | - |
| 1777860402 | 11.67° C | 33% | - | 0 mm | - | - | - |
| 1777860097 | 12.78° C | 31% | - | 0 mm | - | - | - |
| 1777859794 | 12.78° C | 30% | - | 0 mm | - | - | - |
| 1777859491 | 13.33° C | 29% | - | 0 mm | - | - | - |
| 1777859186 | 13.33° C | 28% | - | 0 mm | - | - | - |
| 1777858884 | 13.33° C | 29% | - | 0 mm | - | - | - |
| 1777858581 | 13.89° C | 28% | - | 0 mm | - | - | - |
| 1777858278 | 13.89° C | 26% | - | 0 mm | - | - | - |
| 1777857976 | 13.89° C | 27% | - | 0 mm | - | - | - |
| 1777857674 | 13.89° C | 27% | - | 0 mm | - | - | - |
| 1777857370 | 14.44° C | 27% | - | 0 mm | - | - | - |
| 1777857066 | 15° C | 27% | - | 0 mm | - | - | - |
| 1777856762 | 15° C | 26% | - | 0 mm | - | - | - |
| 1777856458 | 15° C | 26% | - | 0 mm | - | - | - |
| 1777856155 | 15° C | 26% | - | 0 mm | - | - | - |
| 1777855852 | 15° C | 27% | - | 0 mm | - | - | - |
| 1777855550 | 15° C | 26% | - | 0 mm | - | - | - |
* Rain latest hour (hover to see other rain measurements)
** Current wind speed in m/s (hover to see current wind gust speed)